Probability
0 0 0 0 0 0 0 0 0 0 0 1 3 4 6 9 9 8 9 11 15 15 12 10 12 15 19 24 26 23 18 15 13 13 12 10 9 9 9 8 6 6 7 9
1 0 0 0 0 0 0 0 0 0 1 2 3 3 5 8 9 8 9 11 12 12 10 9 11 14 18 22 23 21 17 14 11 9 8 8 7 6 6 5 4 4 5 5
2 1 0 0 0 0 0 0 1 1 2 3 3 2 4 8 9 8 8 11 11 9 8 8 9 12 15 16 16 16 15 13 8 4 3 4 4 4 4 4 4 4 3 3
2 1 0 0 0 0 0 1 2 2 3 6 6 4 6 8 8 6 6 9 9 7 7 8 9 11 12 11 10 11 11 10 6 3 1 1 2 3 4 5 6 6 4 2
1 1 0 0 0 0 1 2 3 5 7 9 8 6 6 7 7 5 5 7 7 7 10 12 12 11 11 10 8 7 6 6 5 3 1 1 2 3 5 7 6 6 4 2
0 0 0 1 1 1 1 3 5 8 10 9 7 6 6 8 7 6 6 7 8 10 13 16 16 14 13 10 7 5 4 4 4 4 3 2 3 3 5 6 5 4 4 4
0 0 1 2 2 1 1 2 5 8 9 8 7 7 8 9 9 9 10 11 12 13 14 16 18 18 15 11 8 6 6 6 6 7 6 5 4 3 4 5 5 4 4 5
0 0 1 3 3 2 1 2 4 5 7 9 9 9 8 8 10 12 13 14 15 14 12 13 17 19 17 14 11 9 8 9 9 9 9 8 6 5 6 5 4 5 6 6
1 1 2 3 4 3 2 2 3 4 7 10 10 9 7 7 10 12 12 13 15 14 11 11 14 16 15 15 14 13 13 12 11 10 10 10 8 9 10 9 7 6 6 6
1 1 2 4 5 4 3 3 4 5 8 9 9 7 6 6 9 10 10 11 13 13 12 12 12 11 11 13 16 17 18 17 15 13 11 9 8 10 12 12 10 9 8 8
1 1 2 4 4 3 2 3 4 5 7 8 8 7 6 6 7 8 8 10 11 11 11 12 11 10 8 10 13 16 17 19 17 15 11 7 5 6 7 8 9 9 9 9
1 1 2 3 3 1 0 2 4 5 6 7 7 7 6 5 6 6 7 8 8 8 8 9 9 8 6 6 8 9 11 14 14 11 8 5 3 2 2 2 3 3 4 5
1 1 2 3 2 1 0 1 4 5 5 5 4 4 4 4 5 6 6 6 6 6 5 5 5 5 4 4 4 4 6 8 10 8 5 3 3 2 1 0 0 0 0 1
0 0 1 2 2 1 0 1 2 3 3 2 1 1 3 3 4 5 5 4 4 3 3 3 3 2 3 3 2 2 3 5 6 6 4 3 3 4 4 2 0 0 0 0
0 0 0 1 1 0 0 0 1 1 1 0 0 1 2 3 2 2 2 1 1 1 1 1 1 1 2 3 2 2 1 2 3 3 3 2 3 5 6 5 2 0 0 0
0 0 0 0 0 0 0 0 0 0 0 0 0 1 1 1 1 0 0 0 0 0 0 0 0 1 2 3 3 2 1 0 0 1 1 2 3 4 6 5 3 1 0 0
0 0 0 0 0 0 0 0 0 0 0 0 0 0 0 0 0 0 0 0 0 0 0 0 0 0 1 1 2 2 2 1 0 0 0 1 2 2 2 3 2 0 0 0
0 0 0 0 0 0 0 0 0 0 0 0 0 0 0 0 0 0 0 0 0 0 0 0 0 0 0 0 1 1 1 1 0 0 0 0 0 0 0 0 0 0 0 0
0 0 0 0 0 0 0 0 0 0 0 0 0 0 0 0 0 0 0 0 0 0 0 0 0 0 0 0 0 0 0 0 0 0 0 0 0 0 0 0 0 0 0 0
0 0 0 0 0 0 0 0 0 0 0 0 0 0 0 0 0 0 0 0 0 0 0 0 0 0 0 0 0 0 0 0 0 0 0 0 0 0 0 0 0 0 0 0
0 0 0 0 0 0 0 0 0 1 0 0 0 0 0 0 0 0 0 0 0 0 0 0 0 0 0 0 0 0 0 0 0 0 0 0 0 0 0 0 0 0 0 0
0 0 0 0 0 0 0 0 0 0 0 0 0 0 0 0 0 0 0 0 0 0 0 0 0 0 0 0 0 0 0 0 0 0 0 0 0 0 0 0 0 0 0 0
0 0 0 0 1 1 1 0 0 0 0 0 0 0 0 0 0 0 0 0 0 0 0 0 0 0 0 0 0 0 0 0 0 0 0 0 0 0 0 0 0 0 0 0
0 1 1 1 1 1 1 0 0 0 0 0 0 0 0 0 0 0 0 0 0 0 0 0 0 0 0 0 0 0 0 0 0 0 0 0 0 0 0 0 0 0 0 0
1 2 2 2 1 1 0 0 0 0 0 0 0 0 0 0 0 0 0 0 0 0 0 0 0 0 0 0 0 0 0 0 0 0 0 0 0 0 0 0 0 0 0 0
2 2 2 1 0 0 0 0 0 0 0 0 0 0 0 0 0 0 0 0 0 0 0 0 0 0 0 0 0 0 0 0 0 0 0 0 0 0 0 0 0 0 0 0
1 1 1 0 0 0 0 0 0 0 0 0 0 0 0 0 0 0 0 0 0 0 0 0 0 0 0 0 0 0 0 0 0 0 0 0 0 0 0 0 0 0 0 0
Wind_Speed
4 4 4 3 3 3 5 8 8 8 8 8 8 7 5 5 5 5 5 6 7 8 8 8 8 8 9 10 10 11 11 11 11 9 9 8 8 8 8 9 10 8 8 8
1 1 1 1 1 2 3 5 6 6 5 5 6 4 3 4 5 4 6 6 7 8 8 9 9 9 9 9 9 10 11 11 9 9 9 9 9 9 8 8 8 8 9 9
1 1 3 1 1 2 2 2 5 5 5 4 5 4 4 4 5 5 6 6 7 8 9 9 9 9 10 10 9 10 10 10 10 10 10 10 11 10 10 9 8 8 8 9
2 3 3 4 2 5 6 3 3 5 6 8 7 5 3 4 5 3 3 4 5 6 7 7 8 8 8 8 9 9 10 10 10 10 10 9 9 10 10 8 8 8 9 9
3 3 1 2 1 2 6 3 3 5 8 7 6 5 3 2 2 2 3 3 4 6 6 7 7 8 8 8 8 9 9 9 10 11 11 10 11 10 9 8 8 8 8 9
3 4 4 4 2 1 7 2 3 3 7 6 5 4 1 2 2 2 2 2 3 4 4 5 6 7 8 8 8 9 9 9 9 10 11 11 11 9 7 7 7 7 7 8
4 3 3 3 2 2 4 5 1 4 5 5 4 4 2 2 3 3 3 3 3 4 4 5 6 7 8 8 9 9 8 7 8 9 10 9 9 7 7 7 7 7 7 6
4 4 4 3 3 3 4 4 3 4 5 6 5 4 3 4 4 5 5 5 4 3 2 2 4 6 6 7 7 6 7 7 7 7 8 8 7 7 7 8 7 7 6 5
3 4 2 2 4 3 4 7 4 4 5 7 5 4 4 4 4 5 5 4 4 3 2 2 2 4 5 5 4 6 6 7 7 7 6 6 7 7 6 6 6 6 5 5
3 2 2 5 6 4 5 7 6 6 7 7 6 5 5 4 4 5 4 4 4 4 4 3 2 1 1 1 3 5 5 5 5 6 6 5 5 5 5 6 6 5 5 5
3 2 4 5 6 5 6 8 8 8 7 7 8 6 5 5 4 4 3 3 4 4 3 2 2 2 1 1 2 3 4 4 4 5 6 5 4 3 4 5 6 7 6 5
3 3 4 4 3 6 8 7 7 8 8 8 8 7 6 5 4 4 4 4 5 4 3 3 2 2 2 2 2 3 3 3 3 3 4 5 5 3 3 3 3 5 6 6
2 4 5 6 6 6 7 7 8 9 8 8 7 6 7 6 5 5 6 6 5 4 4 3 3 3 2 1 2 3 3 3 3 3 4 4 4 5 4 2 4 4 2 4
5 7 7 6 6 6 8 10 11 11 9 8 7 7 7 8 7 8 7 6 6 6 6 6 6 5 4 2 3 3 3 3 3 3 3 3 4 4 4 4 3 2 2 3
7 7 8 7 8 7 8 10 11 10 9 8 7 8 8 8 8 7 7 7 8 8 8 7 7 5 4 4 5 5 4 3 3 3 3 3 3 4 4 4 4 3 3 3
8 9 9 9 9 8 10 11 10 8 8 8 8 8 7 8 8 8 8 8 9 9 7 7 7 5 5 5 5 5 4 6 5 4 4 4 4 4 4 4 4 4 3 2
9 8 8 8 8 8 9 9 8 8 7 8 8 7 8 8 9 9 8 8 8 8 7 7 6 6 6 6 6 5 5 6 8 5 4 4 4 5 4 4 4 4 3 3
7 8 8 8 8 9 9 8 8 8 7 8 7 7 8 8 8 6 6 7 8 9 10 8 7 8 8 8 6 6 6 6 6 6 6 6 6 5 5 5 5 5 4 5
9 10 9 9 9 9 8 8 7 7 7 7 8 8 7 7 6 5 6 8 9 9 7 8 10 9 8 9 8 6 7 8 8 7 7 8 8 7 6 6 6 5 5 4
10 10 11 10 10 9 9 8 8 7 7 7 8 8 8 6 6 6 7 8 6 3 4 6 8 7 7 8 10 7 8 8 8 7 7 7 7 7 7 7 7 6 6 5
10 11 11 11 10 8 8 7 8 8 7 7 8 7 6 5 5 5 7 6 5 5 6 8 6 6 6 7 9 7 8 8 8 7 7 7 7 7 7 7 7 6 6 5
9 10 10 9 9 8 7 7 8 8 8 7 7 6 7 6 6 6 6 4 4 7 6 5 5 8 9 9 7 7 8 8 7 7 7 6 6 6 6 6 6 6 5 5
8 8 9 8 8 8 8 7 7 7 7 6 6 6 6 5 4 5 5 3 4 8 6 6 9 12 12 8 7 7 8 8 7 7 6 6 6 6 5 5 5 5 4 4
8 8 8 8 8 8 8 6 6 6 6 6 6 6 6 5 4 4 3 5 8 9 7 9 14 14 12 8 8 8 7 7 7 7 6 6 6 6 5 5 5 5 5 6
8 8 8 8 7 6 6 6 7 7 7 6 6 6 4 4 4 3 4 5 8 9 7 10 13 13 9 7 7 7 7 7 7 6 6 6 6 6 6 5 5 5 5 5
7 7 6 6 5 5 5 5 5 5 5 6 5 4 4 4 5 5 4 6 8 8 6 6 7 8 7 7 7 7 6 6 7 7 6 6 6 6 6 6 7 5 5 4
7 6 6 6 5 5 5 5 5 5 5 5 5 4 5 5 5 6 6 6 6 6 6 6 6 6 6 6 7 6 6 6 6 6 5 5 5 5 5 6 5 4 4 5
Wind_Direction
209 203 174 186 178 160 162 173 174 196 188 207 200 191 186 176 161 153 156 161 166 170 171 170 174 176 175 176 177 177 178 183 188 185 181 178 178 177 175 178 184 181 179 183
217 207 130 136 140 134 156 163 167 161 204 211 182 158 143 142 147 166 172 170 169 168 170 175 179 178 175 178 179 178 182 188 185 181 180 182 183 180 179 183 183 179 183 184
234 280 64 340 274 159 126 117 151 169 193 156 144 149 153 148 149 171 176 173 173 176 177 181 184 181 180 180 178 180 185 186 184 184 186 189 188 183 184 187 184 185 188 188
131 73 165 244 303 112 102 63 89 126 145 151 156 156 143 148 155 157 164 167 173 184 187 184 181 181 179 176 177 182 187 188 186 186 190 188 187 189 189 188 189 191 192 194
119 135 223 292 327 111 106 44 21 119 129 128 123 88 40 57 120 152 155 158 176 185 180 175 177 176 172 177 179 183 190 192 191 189 190 189 192 193 190 185 189 193 193 193
131 142 199 226 259 160 100 64 340 100 122 128 113 99 289 356 55 60 104 130 157 161 155 167 178 169 169 179 182 190 195 195 191 189 190 193 194 190 183 183 190 188 192 194
159 163 241 255 265 107 130 193 218 91 102 100 108 153 193 23 38 45 69 80 108 137 157 179 176 170 177 184 194 198 193 189 189 189 189 187 185 180 174 177 180 185 191 196
152 151 231 307 65 121 166 154 116 98 96 97 97 92 76 62 51 52 55 66 81 102 121 159 167 171 181 194 196 184 177 179 185 183 186 184 175 176 174 173 176 182 185 195
162 180 221 67 102 119 127 115 106 94 98 102 95 84 78 71 59 57 57 60 72 98 115 105 129 162 185 204 183 172 173 179 180 175 176 170 173 174 167 171 178 184 185 195
82 74 83 78 83 77 88 95 97 97 98 96 94 87 80 68 57 49 42 55 73 89 86 72 72 107 166 191 170 162 167 171 169 168 166 160 165 169 171 177 184 189 192 198
103 132 82 63 78 91 87 84 83 81 82 88 90 81 78 74 62 55 38 33 58 75 75 68 69 77 62 89 142 155 159 157 155 161 160 155 153 161 178 186 191 192 197 194
186 194 139 118 96 94 91 88 93 91 79 72 79 80 76 75 66 58 51 44 49 55 61 59 59 56 58 90 131 145 142 146 157 158 153 152 147 126 80 118 149 181 194 190
144 126 115 111 90 89 92 90 85 84 86 79 67 71 77 71 55 49 46 43 44 43 50 58 59 45 32 71 102 124 140 150 148 150 155 160 158 154 143 92 80 89 137 170
106 102 92 82 82 77 88 90 86 78 74 76 72 68 73 70 60 52 41 35 41 48 47 46 48 35 17 47 86 102 112 121 131 140 145 151 156 155 152 148 135 92 66 97
83 92 106 99 87 81 86 88 85 79 74 68 66 67 69 70 62 49 38 40 48 48 44 45 44 24 15 48 70 82 90 97 109 111 114 119 122 119 120 127 125 118 103 81
90 89 93 92 89 85 85 84 86 86 83 77 71 68 69 71 66 56 45 44 50 43 34 39 36 20 28 50 65 73 78 83 91 97 98 98 104 108 111 116 118 116 116 120
106 104 105 100 94 89 85 86 89 90 87 83 80 76 75 72 64 55 46 43 51 47 39 40 36 34 43 52 63 69 73 76 78 83 84 87 91 98 101 102 102 97 89 84
104 112 114 115 113 104 95 89 86 87 88 87 81 78 78 75 69 58 48 50 53 45 35 31 39 48 48 52 61 66 70 71 73 77 79 77 79 81 86 87 90 91 82 78
103 106 104 103 104 105 104 100 96 93 91 89 84 79 78 77 73 65 58 57 53 45 22 23 38 49 51 55 63 68 72 74 71 70 74 77 75 73 74 76 74 71 72 71
101 103 101 97 94 96 98 98 96 91 87 89 88 85 79 71 67 67 65 60 46 36 31 40 45 49 52 56 63 68 72 74 74 71 69 70 71 70 70 70 69 68 67 65
100 100 99 98 94 90 92 95 96 91 85 85 87 88 86 76 68 69 71 61 22 27 45 49 52 52 55 60 64 68 71 73 73 72 72 72 71 68 67 69 68 67 66 64
99 100 99 98 97 91 87 89 91 89 85 80 78 81 81 73 67 66 62 63 42 44 49 50 57 62 65 66 64 67 71 73 73 72 71 72 73 73 69 68 68 67 64 60
96 99 99 97 97 95 89 86 85 86 85 82 81 82 83 77 71 80 68 34 49 54 55 56 64 63 67 67 66 67 70 72 71 71 70 70 72 73 70 67 65 65 61 55
92 93 94 94 93 92 88 82 81 81 80 82 82 84 88 84 65 56 76 65 62 64 65 67 65 63 66 67 68 67 66 66 66 66 65 64 65 66 67 67 65 62 59 57
92 90 88 89 89 91 91 86 79 74 76 73 68 68 71 84 90 76 69 66 66 69 69 67 68 67 66 68 70 70 68 68 69 69 65 65 64 63 61 60 59 57 55 52
90 89 88 86 89 89 85 83 81 78 81 76 64 57 58 61 68 68 66 67 69 69 68 66 68 68 67 68 67 67 69 70 69 67 65 67 64 62 59 57 56 54 52 50
85 83 80 74 68 70 78 81 79 73 77 85 75 59 60 60 59 60 62 60 62 64 67 67 68 71 72 70 67 65 64 65 66 65 65 65 63 62 61 59 55 50 47 45